EW9560 Weather Reports


Display with metric or nautical units.
time (UTC)temp
F
wind
direction
speed
MPH
gust
MPH
rain 1hr
in
rain 24hr
in
rain mn
in
humidity
%
barometer
mb
20260906083111 54 203 3.0 5.0 0.00 0.00 0.00 92 1017.9
20260906081531 53 168 1.0 4.0 0.00 0.00 0.00 92 1017.8
20260906080037 53 135 0.0 1.0 0.00 0.00 0.00 92 1017.7
20260906074532 53 141 1.0 3.0 0.00 0.00 0.00 91 1017.7
20260906073109 53 137 0.0 2.0 0.00 0.00 0.00 91 1017.8
20260906071532 54 180 0.0 2.0 0.00 0.00 0.00 91 1017.9
20260906070036 54 180 0.0 2.0 0.00 0.00 0.00 90 1018.0
20260906064531 54 187 2.0 4.0 0.00 0.00 0.00 90 1018.2
20260906063034 54 186 3.0 5.0 0.00 0.00 0.00 89 1018.2
20260906061535 54 139 1.0 4.0 0.00 0.00 0.00 89 1018.2
20260906060035 55 155 1.0 4.0 0.00 0.00 0.00 88 1018.2
20260906053036 56 156 1.0 3.0 0.00 0.00 0.00 85 1018.3
20260906051535 56 166 1.0 4.0 0.00 0.00 0.00 84 1018.3
20260906050031 57 202 2.0 5.0 0.00 0.00 0.00 83 1018.3
20260906044535 57 210 5.0 8.0 0.00 0.00 0.00 83 1018.4
20260906043030 57 221 4.0 7.0 0.00 0.00 0.00 84 1018.4
20260906041610 57 223 4.0 7.0 0.00 0.00 0.00 85 1018.3
20260906034537 58 190 3.0 4.0 0.00 0.00 0.00 84 1017.9
20260906031534 59 191 3.0 5.0 0.00 0.00 0.00 83 1017.8
20260906030030 60 223 2.0 4.0 0.00 0.00 0.00 81 1017.7
20260906024610 60 195 3.0 5.0 0.00 0.00 0.00 78 1017.6
20260906023110 62 225 2.0 4.0 0.00 0.00 0.00 74 1017.5
20260906020109 66 225 2.0 5.0 0.00 0.00 0.00 67 1017.5
20260906014534 67 225 2.0 4.0 0.00 0.00 0.00 67 1017.5
20260906011536 68 174 2.0 4.0 0.00 0.00 0.00 65 1017.6
20260906010031 68 172 2.0 7.0 0.00 0.00 0.00 66 1017.8
20260906003110 65 199 5.0 10.0 0.00 0.00 0.00 75 1018.1
20260906001530 63 183 3.0 9.0 0.00 0.00 0.00 76 1018.2
20260906000108 65 191 4.0 9.0 0.00 0.00 0.00 70 1018.2
20260905234609 67 307 1.0 8.0 0.00 0.00 0.00 61 1018.0
20260905233034 67 312 1.0 5.0 0.00 0.00 0.00 58 1017.8
20260905230031 68 304 2.0 4.0 0.00 0.00 0.00 57 1017.8
20260905224535 68 334 1.0 5.0 0.00 0.00 0.00 57 1017.8
20260905223035 69 323 2.0 6.0 0.00 0.00 0.00 55 1017.8
20260905221608 70 323 1.0 4.0 0.00 0.00 0.00 56 1017.8
20260905220033 69 136 1.0 4.0 0.00 0.00 0.00 59 1017.9
20260905214535 68 105 0.0 3.0 0.00 0.00 0.00 58 1018.1
20260905213034 68 185 3.0 5.0 0.00 0.00 0.00 58 1018.1
20260905211533 68 187 3.0 5.0 0.00 0.00 0.00 56 1018.2
20260905210108 68 66 1.0 6.0 0.00 0.00 0.00 54 1018.3
20260905204609 68 66 2.0 5.0 0.00 0.00 0.00 54 1018.3
20260905203031 68 37 2.0 9.0 0.00 0.00 0.00 55 1018.3
20260905201532 68 17 2.0 7.0 0.00 0.00 0.00 56 1018.4
20260905200034 69 9 2.0 7.0 0.00 0.00 0.00 56 1018.6
20260905194642 68 295 2.0 5.0 0.00 0.00 0.00 59 1018.8
20260905193030 67 328 3.0 7.0 0.00 0.00 0.00 61 1019.0
20260905191532 66 312 1.0 6.0 0.00 0.00 0.00 64 1019.2
20260905190029 65 26 2.0 7.0 0.00 0.00 0.00 67 1019.4
20260905184532 64 340 2.0 5.0 0.00 0.00 0.00 70 1019.6
20260905183035 62 47 1.0 5.0 0.00 0.00 0.00 75 1019.8
20260905181610 60 225 1.0 3.0 0.00 0.00 0.00 81 1020.0
20260905180033 58 229 1.0 3.0 0.00 0.00 0.00 86 1020.0
20260905174530 58 224 1.0 3.0 0.00 0.00 0.00 88 1020.1
20260905171530 57 202 0.0 2.0 0.00 0.00 0.00 92 1020.0
20260905170034 56 200 1.0 3.0 0.00 0.00 0.00 93 1020.1
20260905164532 56 170 1.0 3.0 0.00 0.00 0.00 94 1020.0
20260905163034 55 205 2.0 4.0 0.00 0.00 0.00 95 1020.0
20260905161608 55 200 1.0 4.0 0.00 0.00 0.00 97 1019.9
20260905160035 54 175 2.0 4.0 0.00 0.00 0.00 98 1020.0
20260905154531 53 157 1.0 3.0 0.00 0.00 0.00 98 1019.9
20260905153031 53 196 0.0 2.0 0.00 0.00 0.00 98 1019.9
20260905151535 52 217 0.0 3.0 0.00 0.00 0.00 98 1019.9
20260905150109 52 202 0.0 2.0 0.00 0.00 0.00 98 1019.8
20260905144642 52 202 0.0 0.0 0.00 0.00 0.00 98 1019.7
20260905133037 51 202 0.0 2.0 0.00 0.01 0.00 97 1019.2
20260905131612 51 202 0.0 2.0 0.00 0.01 0.00 97 1019.0
20260905130036 52 202 2.0 4.0 0.00 0.01 0.00 97 1019.0
20260905124537 52 223 0.0 4.0 0.00 0.01 0.00 97 1019.1
20260905123034 52 208 0.0 2.0 0.00 0.01 0.00 97 1019.1
20260905121650 52 180 1.0 3.0 0.00 0.01 0.00 97 1019.0
20260905120035 52 180 0.0 0.0 0.00 0.01 0.00 97 1019.0
20260905114537 52 180 0.0 0.0 0.00 0.01 0.00 97 1019.0
20260905113034 51 180 0.0 0.0 0.00 0.01 0.00 96 1019.0
20260905111533 52 180 0.0 1.0 0.00 0.01 0.00 96 1018.8
20260905110036 52 180 0.0 0.0 0.00 0.01 0.00 96 1018.8
20260905101535 53 180 0.0 1.0 0.00 0.01 0.00 96 1018.7
20260905094535 53 180 0.0 0.0 0.00 0.01 0.00 95 1018.9
20260905093037 53 180 1.0 3.0 0.00 0.01 0.00 95 1018.8
20260905091536 53 95 0.0 2.0 0.00 0.01 0.00 95 1018.8
20260905090036 54 90 0.0 0.0 0.00 0.01 0.00 95 1018.7
20260905084535 54 90 0.0 2.0 0.00 0.01 0.00 94 1018.7